Flag for Austria Weather past 2 weeks in Kirchdorf an der Krems, Upper Austria, Austria

Now
40 °F

Chilly.


Feels Like: 37 °F
Forecast: 26 / 47 °F
Wind: 3 mph from West

Location: Kremsmuenster

Current Time: Mar 6, 2015 at 11:04:28 PM

Latest Report: Mar 6, 2015 at 9:00 PM


Visibility: N/A

Pressure: 30.64 "Hg

Humidity: 70%

Dew point: 31 °F

Location of Kirchdorf an der KremsLocation

Historic Weather in Kirchdorf an der Krems — Graph

°F

Kirchdorf an der Krems temperature yesterday

Maximum temperature yesterday: 41 °F (at 4:00 PM)
Minimum temperature yesterday: 35 °F (at 7:00 AM)
Average temperature yesterday: 37 °F

Past Weeks' High & Low Weather Summary

 TemperatureHumidityPressure
High48 °F (Feb 21, 3:00 PM)100% (Mar 1, 6:00 AM)30.66 "Hg (Mar 1, 6:00 AM)
Low24 °F (Feb 20, 8:00 AM)37% (Mar 3, 4:00 PM)29.53 "Hg (Feb 21, 5:00 PM)
Average38 °F81%30.06 "Hg
* Reported Feb 19 9:00 PM — Mar 6 9:00 PM, Kirchdorf an der Krems, Weather by CustomWeather, © 2015

Note: Actual official high and low records may vary slightly from our data, if they occured in-between our weather recording intervals... More about our weather records

Advertising

Kirchdorf an der Krems weather history for previous 24 hours

 ConditionsComfort  
Time TempWeatherWind HumidityBarometerVisibility
9:00 PM
Fri, Mar 6
40 °FChilly.3 mph70%30.64 "HgN/A
8:00 PM40 °FQuite cool.3 mph68%30.63 "HgN/A
7:00 PM41 °FOvercast.2 mph68%30.61 "Hg6 mi
6:00 PM42 °FQuite cool.3 mph61%30.60 "HgN/A
5:00 PM42 °FQuite cool.5 mph65%30.59 "HgN/A
4:00 PM42 °FOvercast.6 mph65%30.60 "Hg7 mi
3:00 PM43 °FQuite cool.2 mph65%30.60 "HgN/A
2:00 PM42 °FQuite cool.6 mph64%30.62 "HgN/A
1:00 PM42 °FQuite cool.5 mph62%30.63 "HgN/A
12:00 PM40 °FChilly.7 mph72%30.65 "HgN/A
11:00 AM38 °FChilly.6 mph74%30.66 "HgN/A
10:00 AM37 °FPartly sunny.5 mph76%30.66 "Hg9 mi
9:00 AM36 °FChilly.5 mph79%30.65 "HgN/A
8:00 AM34 °FChilly.5 mph82%30.64 "HgN/A
7:00 AM33 °FOvercast.3 mph86%30.63 "Hg11 mi
6:00 AM33 °FChilly.5 mph90%30.62 "HgN/A
5:00 AM34 °FChilly.6 mph81%30.62 "HgN/A
4:00 AM33 °FFog.5 mph83%30.61 "HgN/A
3:00 AM34 °FChilly.5 mph76%30.60 "HgN/A
2:00 AM34 °FChilly.5 mph78%30.61 "HgN/A
1:00 AM34 °FChilly.5 mph77%30.60 "HgN/A
12:00 AM35 °FChilly.3 mph74%30.60 "HgN/A
11:00 PM
Thu, Mar 5
35 °FChilly.6 mph78%30.60 "HgN/A
Weather by CustomWeather, © 2015

See weather overviewHow to use our weather pages